| time (UTC) | temp F | wind direction | speed knots | gust knots | rain 1hr in | rain 24hr in | rain mn in | humidity % | barometer mb |
| 20260506061804 | 45 | 56 | 0.9 | 3.5 | 0.00 | 0.00 | 0.00 | 95 | 1012.3 |
| 20260506060904 | 44 | 59 | 0.9 | 6.1 | 0.00 | 0.00 | 0.00 | 95 | 1012.1 |
| 20260506050904 | 46 | 329 | 1.7 | 5.2 | 0.00 | 0.00 | 0.00 | 92 | 1012.2 |
| 20260506044504 | 46 | 306 | 0.9 | 5.2 | 0.00 | 0.00 | 0.00 | 89 | 1012.3 |
| 20260506043604 | 46 | 336 | 0.9 | 2.6 | 0.00 | 0.00 | 0.00 | 88 | 1012.1 |
| 20260506042704 | 45 | 357 | 0.9 | 5.2 | 0.00 | 0.00 | 0.00 | 88 | 1012.2 |
| 20260506041804 | 45 | 76 | 0.9 | 2.6 | 0.00 | 0.00 | 0.00 | 89 | 1012.4 |
| 20260506040904 | 45 | 57 | 0.9 | 3.5 | 0.00 | 0.00 | 0.00 | 89 | 1012.3 |
| 20260506040004 | 45 | 21 | 0.9 | 3.5 | 0.00 | 0.00 | 0.00 | 89 | 1012.3 |
| 20260506035404 | 45 | 53 | 0.9 | 3.5 | 0.00 | 0.00 | 0.00 | 89 | 1012.3 |
| 20260506034504 | 45 | 52 | 0.9 | 5.2 | 0.00 | 0.00 | 0.00 | 89 | 1012.1 |
| 20260506033604 | 45 | 74 | 0.9 | 5.2 | 0.00 | 0.00 | 0.00 | 88 | 1012.3 |
| 20260506032704 | 45 | 14 | 0.9 | 3.5 | 0.00 | 0.00 | 0.00 | 88 | 1012.2 |
| 20260506031803 | 46 | 79 | 0.9 | 3.5 | 0.00 | 0.00 | 0.00 | 89 | 1012.2 |
| 20260506030904 | 46 | 68 | 0.9 | 7.0 | 0.00 | 0.00 | 0.00 | 89 | 1012.3 |
| 20260506030004 | 45 | 50 | 0.9 | 2.6 | 0.00 | 0.00 | 0.00 | 89 | 1012.7 |
| 20260506025404 | 46 | 59 | 0.9 | 3.5 | 0.00 | 0.00 | 0.00 | 90 | 1012.7 |
| 20260506024503 | 46 | 339 | 0.9 | 3.5 | 0.00 | 0.00 | 0.00 | 90 | 1012.9 |
| 20260506023604 | 45 | 256 | 0.9 | 2.6 | 0.00 | 0.00 | 0.00 | 87 | 1012.5 |
| 20260506022705 | 46 | 315 | 0.9 | 3.5 | 0.00 | 0.00 | 0.00 | 91 | 1012.6 |
| 20260506021803 | 45 | 345 | 0.9 | 7.8 | 0.00 | 0.00 | 0.00 | 91 | 1012.6 |
| 20260506020904 | 45 | 326 | 0.9 | 7.8 | 0.00 | 0.00 | 0.00 | 91 | 1012.8 |
| 20260506020004 | 45 | 310 | 0.9 | 3.5 | 0.00 | 0.00 | 0.00 | 90 | 1012.7 |
| 20260506015403 | 46 | 333 | 1.7 | 7.8 | 0.00 | 0.00 | 0.00 | 90 | 1012.9 |
| 20260506014503 | 46 | 342 | 3.5 | 7.8 | 0.00 | 0.00 | 0.00 | 89 | 1013.0 |
| 20260506013603 | 46 | 347 | 1.7 | 7.8 | 0.00 | 0.00 | 0.00 | 88 | 1012.9 |
| 20260506012703 | 45 | 10 | 0.9 | 2.6 | 0.00 | 0.00 | 0.00 | 87 | 1012.9 |
| 20260506011803 | 45 | 25 | 0.9 | 3.5 | 0.00 | 0.00 | 0.00 | 86 | 1012.7 |
| 20260506010903 | 45 | 312 | 0.9 | 1.7 | 0.00 | 0.00 | 0.00 | 85 | 1013.2 |
| 20260506010003 | 44 | 5 | 0.9 | 5.2 | 0.00 | 0.00 | 0.00 | 85 | 1012.9 |
| 20260506005403 | 44 | 15 | 0.9 | 1.7 | 0.00 | 0.00 | 0.00 | 84 | 1013.4 |
| 20260506004504 | 44 | 53 | 0.9 | 3.5 | 0.00 | 0.00 | 0.00 | 83 | 1013.0 |
| 20260506003603 | 44 | 288 | 0.9 | 2.6 | 0.00 | 0.00 | 0.00 | 83 | 1013.4 |
| 20260506002703 | 45 | 39 | 0.9 | 5.2 | 0.00 | 0.00 | 0.00 | 84 | 1013.2 |
| 20260506001803 | 45 | 45 | 0.9 | 3.5 | 0.00 | 0.00 | 0.00 | 82 | 1013.5 |
| 20260506000904 | 45 | 96 | 0.9 | 5.2 | 0.00 | 0.00 | 0.00 | 84 | 1013.2 |
| 20260506000003 | 45 | 112 | 0.9 | 2.6 | 0.00 | 0.00 | 0.00 | 85 | 1013.4 |
| 20260505235403 | 45 | 61 | 0.9 | 3.5 | 0.00 | 0.00 | 0.00 | 85 | 1013.4 |
| 20260505234503 | 45 | 58 | 0.9 | 3.5 | 0.00 | 0.00 | 0.00 | 85 | 1013.6 |
| 20260505233603 | 46 | 48 | 1.7 | 5.2 | 0.00 | 0.00 | 0.00 | 87 | 1013.7 |
| 20260505232703 | 45 | 36 | 0.9 | 6.1 | 0.00 | 0.00 | 0.00 | 87 | 1013.5 |
| 20260505231803 | 46 | 66 | 0.9 | 3.5 | 0.00 | 0.00 | 0.00 | 87 | 1013.6 |
| 20260505230903 | 46 | 52 | 0.9 | 5.2 | 0.00 | 0.00 | 0.00 | 87 | 1013.7 |
| 20260505230003 | 46 | 49 | 0.9 | 5.2 | 0.00 | 0.00 | 0.00 | 86 | 1013.7 |
| 20260505225403 | 47 | 41 | 0.9 | 5.2 | 0.00 | 0.00 | 0.00 | 86 | 1013.8 |
| 20260505224503 | 47 | 81 | 0.9 | 5.2 | 0.00 | 0.00 | 0.00 | 85 | 1013.7 |
| 20260505223603 | 46 | 44 | 0.9 | 6.1 | 0.00 | 0.00 | 0.00 | 84 | 1013.7 |
| 20260505222703 | 46 | 41 | 0.9 | 3.5 | 0.00 | 0.00 | 0.00 | 84 | 1013.8 |
| 20260505221803 | 47 | 65 | 0.9 | 3.5 | 0.00 | 0.00 | 0.00 | 83 | 1014.0 |
| 20260505220903 | 46 | 69 | 0.9 | 3.5 | 0.00 | 0.00 | 0.00 | 83 | 1013.9 |
| 20260505220003 | 47 | 71 | 0.9 | 3.5 | 0.00 | 0.00 | 0.00 | 83 | 1013.8 |
| 20260505215403 | 47 | 51 | 0.9 | 2.6 | 0.00 | 0.00 | 0.00 | 84 | 1014.0 |
| 20260505214503 | 47 | 65 | 0.9 | 3.5 | 0.00 | 0.00 | 0.00 | 83 | 1013.9 |
| 20260505213603 | 47 | 56 | 0.9 | 6.1 | 0.00 | 0.00 | 0.00 | 83 | 1013.9 |
| 20260505212703 | 47 | 43 | 0.9 | 3.5 | 0.00 | 0.00 | 0.00 | 85 | 1014.1 |
| 20260505211806 | 47 | 48 | 0.9 | 6.1 | 0.00 | 0.00 | 0.00 | 85 | 1014.0 |
| 20260505210906 | 47 | 39 | 0.9 | 3.5 | 0.00 | 0.00 | 0.00 | 86 | 1013.9 |
| 20260505210006 | 48 | 70 | 0.9 | 5.2 | 0.00 | 0.00 | 0.00 | 85 | 1014.0 |
| 20260505205406 | 48 | 76 | 0.9 | 5.2 | 0.00 | 0.00 | 0.00 | 85 | 1014.0 |
| 20260505204506 | 48 | 58 | 0.9 | 6.1 | 0.00 | 0.00 | 0.00 | 84 | 1013.9 |
| 20260505203606 | 48 | 86 | 0.9 | 6.1 | 0.00 | 0.00 | 0.00 | 83 | 1013.8 |
| 20260505202706 | 48 | 50 | 0.9 | 3.5 | 0.00 | 0.00 | 0.00 | 84 | 1013.8 |
| 20260505201806 | 48 | 14 | 0.9 | 5.2 | 0.00 | 0.00 | 0.00 | 85 | 1014.0 |
| 20260505200906 | 48 | 67 | 0.9 | 6.1 | 0.00 | 0.00 | 0.00 | 87 | 1013.8 |
| 20260505200006 | 48 | 71 | 1.7 | 6.1 | 0.00 | 0.00 | 0.00 | 87 | 1013.8 |
| 20260505195405 | 48 | 79 | 1.7 | 6.1 | 0.00 | 0.00 | 0.00 | 87 | 1013.7 |
| 20260505194506 | 48 | 48 | 0.9 | 6.1 | 0.00 | 0.00 | 0.00 | 88 | 1013.8 |
| 20260505193605 | 48 | 58 | 0.9 | 5.2 | 0.00 | 0.00 | 0.00 | 88 | 1013.8 |
| 20260505192705 | 49 | 97 | 1.7 | 7.0 | 0.00 | 0.00 | 0.00 | 87 | 1013.5 |
| 20260505191805 | 49 | 57 | 0.9 | 3.5 | 0.00 | 0.00 | 0.00 | 87 | 1013.5 |
| 20260505190906 | 49 | 46 | 1.7 | 7.8 | 0.00 | 0.00 | 0.00 | 88 | 1013.2 |
| 20260505190005 | 49 | 68 | 1.7 | 6.1 | 0.00 | 0.00 | 0.00 | 88 | 1013.4 |
| 20260505185405 | 49 | 88 | 1.7 | 6.1 | 0.00 | 0.00 | 0.00 | 88 | 1013.2 |
| 20260505184505 | 49 | 56 | 0.9 | 7.8 | 0.00 | 0.00 | 0.00 | 88 | 1013.1 |
| 20260505183605 | 50 | 47 | 0.9 | 5.2 | 0.00 | 0.00 | 0.00 | 87 | 1013.1 |
| 20260505182705 | 50 | 54 | 0.9 | 8.7 | 0.00 | 0.00 | 0.00 | 86 | 1013.0 |
| 20260505181805 | 50 | 59 | 0.9 | 3.5 | 0.00 | 0.00 | 0.00 | 86 | 1012.9 |
| 20260505180905 | 50 | 46 | 0.9 | 6.1 | 0.00 | 0.00 | 0.00 | 85 | 1012.9 |
| 20260505180005 | 50 | 52 | 0.9 | 6.1 | 0.00 | 0.00 | 0.00 | 85 | 1013.2 |
| 20260505175405 | 50 | 43 | 0.9 | 6.1 | 0.00 | 0.00 | 0.00 | 85 | 1013.2 |
| 20260505174505 | 50 | 48 | 0.9 | 6.1 | 0.00 | 0.00 | 0.00 | 86 | 1013.0 |
| 20260505173605 | 51 | 55 | 0.9 | 3.5 | 0.00 | 0.00 | 0.00 | 85 | 1013.1 |
| 20260505172706 | 51 | 75 | 0.9 | 2.6 | 0.00 | 0.00 | 0.00 | 84 | 1013.1 |
| 20260505171805 | 51 | 69 | 0.9 | 2.6 | 0.00 | 0.00 | 0.00 | 83 | 1013.0 |
| 20260505170905 | 51 | 8 | 0.9 | 7.0 | 0.00 | 0.00 | 0.00 | 83 | 1013.0 |
| 20260505170005 | 52 | 60 | 0.9 | 5.2 | 0.00 | 0.00 | 0.00 | 82 | 1013.2 |
| 20260505165405 | 52 | 38 | 0.9 | 5.2 | 0.00 | 0.00 | 0.00 | 81 | 1013.0 |
| 20260505164505 | 53 | 13 | 0.9 | 5.2 | 0.00 | 0.00 | 0.00 | 81 | 1012.9 |
| 20260505163605 | 53 | 24 | 1.7 | 7.0 | 0.00 | 0.00 | 0.00 | 81 | 1013.1 |
| 20260505162705 | 53 | 49 | 0.9 | 7.0 | 0.00 | 0.00 | 0.00 | 79 | 1013.0 |
| 20260505161805 | 53 | 43 | 0.9 | 7.0 | 0.00 | 0.00 | 0.00 | 77 | 1012.9 |
| 20260505160905 | 53 | 45 | 0.9 | 5.2 | 0.00 | 0.00 | 0.00 | 79 | 1012.9 |
| 20260505152705 | 57 | 47 | 1.7 | 6.1 | 0.00 | 0.00 | 0.00 | 73 | 1013.0 |
| 20260505151805 | 58 | 38 | 0.9 | 6.1 | 0.00 | 0.00 | 0.00 | 72 | 1012.8 |
| 20260505150905 | 57 | 52 | 0.9 | 5.2 | 0.00 | 0.00 | 0.00 | 74 | 1012.8 |
| 20260505124505 | 60 | 60 | 0.9 | 5.2 | 0.00 | 0.00 | 0.00 | 71 | 1012.9 |
| 20260505123605 | 59 | 38 | 0.9 | 5.2 | 0.00 | 0.00 | 0.00 | 73 | 1013.0 |
| 20260505122705 | 58 | 15 | 0.9 | 6.1 | 0.00 | 0.00 | 0.00 | 73 | 1013.0 |
| 20260505121805 | 59 | 37 | 0.9 | 6.1 | 0.00 | 0.00 | 0.00 | 74 | 1012.7 |
| 20260505120905 | 58 | 37 | 0.9 | 3.5 | 0.00 | 0.00 | 0.00 | 76 | 1012.9 |
| 20260505120005 | 58 | 18 | 0.9 | 3.5 | 0.00 | 0.00 | 0.00 | 76 | 1013.0 |
| 20260505115405 | 57 | 22 | 1.7 | 3.5 | 0.00 | 0.00 | 0.00 | 77 | 1013.1 |
| 20260505114505 | 58 | 19 | 1.7 | 5.2 | 0.00 | 0.00 | 0.00 | 77 | 1013.0 |
| 20260505113605 | 57 | 352 | 1.7 | 5.2 | 0.00 | 0.00 | 0.00 | 78 | 1013.2 |
| 20260505112705 | 56 | 341 | 1.7 | 7.0 | 0.00 | 0.00 | 0.00 | 81 | 1013.1 |
| 20260505111805 | 56 | 336 | 2.6 | 7.0 | 0.00 | 0.00 | 0.00 | 82 | 1013.2 |
| 20260505110905 | 56 | 341 | 1.7 | 5.2 | 0.00 | 0.00 | 0.00 | 82 | 1013.2 |
| 20260505101805 | 52 | 328 | 1.7 | 5.2 | 0.00 | 0.00 | 0.00 | 89 | 1013.4 |
| 20260505100904 | 52 | 325 | 1.7 | 3.5 | 0.00 | 0.00 | 0.00 | 89 | 1013.1 |
| 20260505100004 | 52 | 328 | 2.6 | 5.2 | 0.00 | 0.00 | 0.00 | 88 | 1013.5 |
| 20260505095404 | 52 | 329 | 1.7 | 5.2 | 0.00 | 0.00 | 0.00 | 87 | 1013.2 |
| 20260505094504 | 53 | 317 | 1.7 | 5.2 | 0.00 | 0.00 | 0.00 | 86 | 1013.6 |
| 20260505093604 | 52 | 320 | 1.7 | 2.6 | 0.00 | 0.00 | 0.00 | 87 | 1013.1 |
| 20260505092704 | 53 | 323 | 0.9 | 2.6 | 0.00 | 0.00 | 0.00 | 85 | 1013.6 |
| 20260505091804 | 53 | 284 | 0.9 | 1.7 | 0.00 | 0.00 | 0.00 | 84 | 1013.4 |
| 20260505090905 | 54 | 244 | 0.9 | 1.7 | 0.00 | 0.00 | 0.00 | 85 | 1013.4 |
| 20260505090005 | 52 | 281 | 0.9 | 2.6 | 0.00 | 0.00 | 0.00 | 87 | 1013.5 |
| 20260505085404 | 51 | 303 | 0.9 | 2.6 | 0.00 | 0.00 | 0.00 | 88 | 1013.5 |
| 20260505084504 | 51 | 253 | 0.9 | 1.7 | 0.00 | 0.00 | 0.00 | 87 | 1013.5 |
| 20260505083604 | 50 | 276 | 0.9 | 1.7 | 0.00 | 0.00 | 0.00 | 88 | 1013.6 |
| 20260505082704 | 51 | 312 | 0.9 | 1.7 | 0.00 | 0.00 | 0.00 | 88 | 1013.5 |
| 20260505081804 | 50 | 293 | 0.9 | 2.6 | 0.00 | 0.00 | 0.00 | 87 | 1013.5 |
| 20260505080904 | 50 | 288 | 0.9 | 1.7 | 0.00 | 0.00 | 0.00 | 89 | 1013.7 |
| 20260505080004 | 50 | 302 | 0.9 | 2.6 | 0.00 | 0.00 | 0.00 | 89 | 1013.4 |
| 20260505075404 | 50 | 242 | 0.9 | 2.6 | 0.00 | 0.00 | 0.00 | 91 | 1013.6 |
| 20260505074504 | 49 | 201 | 0.0 | 1.7 | 0.00 | 0.00 | 0.00 | 93 | 1013.6 |
| 20260505073604 | 48 | 212 | 0.0 | 1.7 | 0.00 | 0.00 | 0.00 | 94 | 1013.6 |
| 20260505072704 | 48 | 221 | 0.0 | 0.9 | 0.00 | 0.00 | 0.00 | 96 | 1013.5 |
| 20260505071804 | 47 | 242 | 0.0 | 1.7 | 0.00 | 0.00 | 0.00 | 97 | 1013.6 |
| 20260505070904 | 47 | 220 | 0.0 | 1.7 | 0.00 | 0.00 | 0.00 | 97 | 1013.7 |
| 20260505070005 | 47 | 206 | 0.0 | 1.7 | 0.00 | 0.00 | 0.00 | 98 | 1013.7 |